DateTimeUTC,F1_A11,F1_S11,BsB_S11,BsG_S11,BsR_S11,BbsB_S11,BbsG_S11,BbsR_S11,BaB_A11,BaG_A11,BaR_A11,Tu_S11,T_S11,Uu_S11,U_S11,P_S11,T1_A11
2021-03-24T06:00:00Z,00000200,21000000,,,,,,,0000.54,0000.25,0000.26,15.9,23.7,,00.0,0624.6,30.9
2021-03-24T06:01:00Z,00000200,21000000,,,,,,,-000.04,0000.44,-000.06,15.9,23.8,,00.0,0624.6,30.9
2021-03-24T06:02:00Z,00000200,21000000,,,,,,,-000.08,-000.28,0000.01,15.9,23.8,,00.0,0624.6,30.9
2021-03-24T06:03:00Z,00000200,61000000,,,,,,,-001.28,-001.44,-001.02,15.9,23.8,,00.0,0624.6,30.9
2021-03-24T06:04:00Z,00000200,41000000,0001.15,0000.44,0000.24,0000.39,0000.01,0000.44,-000.84,-000.80,-000.63,16.3,23.6,,00.0,0625.7,30.9
2021-03-24T06:05:00Z,00000200,01000000,0001.15,0000.77,0000.27,0000.20,0000.42,0000.14,-001.14,-000.73,-000.85,16.3,23.6,,00.0,0625.9,30.9
2021-03-24T06:06:00Z,00000200,01000000,0001.22,0000.82,0000.33,0000.41,0000.21,0000.30,0000.08,-000.03,-000.10,16.4,23.5,,00.0,0625.9,30.9
2021-03-24T06:07:00Z,00000200,01000000,0000.97,0000.87,0000.54,0000.36,0000.20,-000.22,-000.19,-000.43,0000.00,16.4,23.5,,00.0,0625.9,30.9
2021-03-24T06:08:00Z,00000200,01000000,0000.32,0000.83,0000.32,0000.55,0000.19,0000.28,-000.35,0000.27,-000.08,16.4,23.5,,00.0,0625.9,30.9
2021-03-24T06:09:00Z,00000200,01000000,0000.95,0000.80,0000.38,0000.49,-000.01,0000.27,0000.32,0000.17,-000.04,16.4,23.5,,00.0,0625.9,30.9
2021-03-24T06:10:00Z,00000200,01000000,0000.88,0000.81,0000.51,0000.27,0000.18,0000.29,0000.49,0000.43,0000.28,16.4,23.5,,00.0,0626.0,30.9
2021-03-24T06:11:00Z,00000200,01000000,0000.84,0000.96,0000.57,0000.50,0000.29,0000.08,0000.05,0000.19,-000.15,16.4,23.5,,00.0,0625.9,30.9
2021-03-24T06:12:00Z,00000200,01000000,0000.93,0000.95,0000.66,0000.45,0000.31,0000.05,0001.17,0000.55,0000.80,16.4,23.5,,00.0,0625.9,30.9
2021-03-24T06:13:00Z,00000200,01000000,0001.16,0000.82,0000.31,0000.44,0000.08,0000.07,-000.45,-000.01,-000.11,16.4,23.5,,00.0,0626.0,30.9
2021-03-24T06:14:00Z,00000200,01000000,0001.42,0001.02,0000.23,0000.57,0000.18,0000.04,0000.57,0000.35,0000.51,16.4,23.5,,00.0,0625.9,30.9
2021-03-24T06:15:00Z,00000200,01000000,0001.47,0000.89,0000.39,0000.16,0000.05,0000.11,0000.23,0000.32,0000.14,16.5,23.5,,00.0,0625.9,30.9
2021-03-24T06:16:00Z,00000200,01000000,0001.40,0001.08,0000.68,0000.43,0000.24,0000.33,0000.95,0000.79,0000.49,16.5,23.6,,00.0,0625.9,30.9
2021-03-24T06:17:00Z,00000200,01000000,0001.57,0000.87,0000.37,0000.43,0000.30,0000.38,0001.03,0001.06,0001.08,16.5,23.5,,00.0,0625.9,30.9
2021-03-24T06:18:00Z,00000200,01000000,0000.87,0000.90,0000.60,0000.23,0000.10,0000.06,0000.38,0000.15,-000.27,16.4,23.5,,00.0,0625.9,30.9
2021-03-24T06:19:00Z,00000200,01000000,0001.63,0001.08,0000.46,0000.21,0000.11,0000.13,0000.63,0000.71,0000.75,16.4,23.5,,00.0,0625.9,30.9
2021-03-24T06:20:00Z,00000200,01000000,0001.29,0001.23,0000.58,0000.06,0000.39,0000.32,0000.64,0000.73,0000.53,16.3,23.4,,00.0,0625.9,30.9
2021-03-24T06:21:00Z,00000200,01000000,0000.80,0001.27,0000.67,0000.41,-000.05,0000.19,-000.01,-000.09,-000.04,16.2,23.4,,00.0,0625.9,30.9
2021-03-24T06:22:00Z,00000200,01000000,0001.45,0001.18,0000.48,0000.50,0000.19,0000.27,0000.49,0000.41,0000.31,16.1,23.4,,00.0,0625.8,30.8
2021-03-24T06:23:00Z,00000200,01000000,0001.29,0001.18,0000.53,0000.47,0000.05,0000.16,0000.75,0000.74,0000.43,16.0,23.3,,00.0,0625.8,30.8
2021-03-24T06:24:00Z,00000200,01000000,0001.16,0000.99,0000.26,0000.55,0000.29,0000.11,0000.51,0000.46,0000.50,15.9,23.3,,00.0,0625.8,30.8
2021-03-24T06:25:00Z,00000200,01000000,0001.46,0001.11,0000.53,0000.44,0000.33,0000.03,0000.79,0000.75,0000.51,15.8,23.2,,00.0,0625.8,30.8
2021-03-24T06:26:00Z,00000200,01000000,0000.97,0000.90,0000.55,0000.18,-000.07,0000.29,0000.23,0000.25,0000.32,15.8,23.2,,00.0,0625.8,30.8
2021-03-24T06:27:00Z,00000200,01000000,0001.17,0001.18,0000.46,0000.55,-000.06,0000.07,0000.56,0000.11,0000.21,15.8,23.1,,00.0,0625.8,30.8
2021-03-24T06:28:00Z,00000200,01000000,0001.23,0001.13,0000.45,0000.44,-000.10,-000.27,0000.13,0000.20,0000.35,15.8,23.1,,00.0,0625.9,30.8
2021-03-24T06:29:00Z,00000200,01000000,0001.15,0000.91,0000.51,0000.26,0000.13,0000.06,0000.39,0000.46,0000.15,15.9,23.1,,00.0,0625.9,30.8
2021-03-24T06:30:00Z,00000200,01000000,0001.24,0001.00,0000.49,0000.46,0000.21,0000.11,-000.34,-000.33,-000.07,15.9,23.1,,00.0,0625.9,30.8
2021-03-24T06:31:00Z,00000200,01000000,0001.69,0000.99,0000.59,0000.94,0000.12,0000.28,0000.52,0000.21,-000.09,15.9,23.2,,00.0,0625.9,30.8
2021-03-24T06:32:00Z,00000200,01000000,0001.80,0000.95,0000.60,0000.49,0000.14,0000.18,0000.65,0000.73,0000.55,16.0,23.2,,00.0,0625.9,30.8
2021-03-24T06:33:00Z,00000200,01000000,0001.16,0001.23,0000.65,0000.19,0000.10,0000.16,-000.08,-000.21,-000.02,16.0,23.2,,00.0,0625.9,30.9
2021-03-24T06:34:00Z,00000200,01000000,0001.19,0001.01,0000.29,0000.25,0000.22,0000.29,-000.22,0000.10,-000.31,16.0,23.2,,00.0,0626.0,30.9
2021-03-24T06:35:00Z,00000200,01000000,0001.22,0000.92,0000.26,0000.67,0000.04,0000.37,0000.63,0000.60,0000.58,16.1,23.2,,00.0,0626.0,30.9
2021-03-24T06:36:00Z,00000200,01000000,0001.01,0000.74,0000.54,0000.49,0000.26,0000.21,0000.15,0000.23,0000.13,16.1,23.2,,00.0,0626.0,30.9
2021-03-24T06:37:00Z,00000200,01000000,0001.15,0000.87,0000.38,-000.07,0000.28,0000.19,0000.06,0000.18,0000.24,16.1,23.2,,00.0,0626.0,30.9
2021-03-24T06:38:00Z,00000200,01000000,0001.51,0000.83,0000.53,0000.05,0000.03,0000.10,0000.63,0000.16,0000.24,16.1,23.3,,00.0,0626.0,30.9
2021-03-24T06:39:00Z,00000200,01000000,0001.45,0001.06,0000.68,0000.24,0000.24,0000.34,0000.33,0000.84,0000.27,16.2,23.3,,00.0,0626.0,30.9
2021-03-24T06:40:00Z,00000200,01000000,0001.26,0001.06,0000.54,0000.40,0000.40,0000.13,0000.77,0000.08,0000.34,16.2,23.3,,00.0,0625.9,30.9
2021-03-24T06:41:00Z,00000200,01000000,0001.28,0001.02,0000.38,0000.16,0000.25,0000.23,0000.35,0000.38,-000.04,16.1,23.3,,00.0,0626.0,30.9
2021-03-24T06:42:00Z,00000200,01000000,0000.80,0000.90,0000.31,0000.57,0000.15,-000.00,0000.19,0000.30,0000.58,16.2,23.2,,00.0,0626.0,30.9
2021-03-24T06:43:00Z,00000200,01000000,0001.21,0000.91,0000.38,0000.29,0000.21,0000.05,0000.31,0000.17,0000.03,16.2,23.2,,00.0,0626.0,30.9
2021-03-24T06:44:00Z,00000200,01000000,0001.14,0001.17,0000.24,0000.38,0000.03,0000.26,0000.15,0000.34,0000.23,16.2,23.2,,00.0,0626.0,30.9
2021-03-24T06:45:00Z,00000200,01000000,0000.94,0000.90,0000.48,0000.82,0000.12,0000.16,0000.37,0000.23,0000.13,16.2,23.2,,00.0,0626.1,30.9
2021-03-24T06:46:00Z,00000200,01000000,0001.10,0000.83,0000.29,-000.08,0000.04,0000.25,0000.17,0000.30,0000.30,16.2,23.3,,00.0,0626.1,30.9
2021-03-24T06:47:00Z,00000200,01000000,0001.07,0001.25,0000.51,0000.83,0000.17,0000.30,0000.64,0000.61,0000.55,16.2,23.3,,00.0,0626.0,30.9
2021-03-24T06:48:00Z,00000200,01000000,0001.39,0000.74,0000.27,0000.59,0000.09,0000.12,0000.78,0000.58,0000.58,16.3,23.3,,00.0,0626.0,30.9
2021-03-24T06:49:00Z,00000200,01000000,0001.28,0000.86,0000.45,0000.42,0000.04,0000.15,0000.77,0000.94,0000.51,16.3,23.3,,00.0,0626.0,30.9
2021-03-24T06:50:00Z,00000200,01000000,0001.09,0001.11,0000.21,-000.02,0000.18,0000.11,0000.60,0000.32,0000.34,16.3,23.3,,00.0,0626.0,30.9
2021-03-24T06:51:00Z,00000200,01000000,0001.57,0000.99,0000.39,0000.31,0000.06,0000.18,0000.36,0000.47,0000.23,16.3,23.3,,00.0,0626.0,30.9
2021-03-24T06:52:00Z,00000200,01000000,0001.45,0000.99,0000.54,0000.77,0000.21,0000.16,0000.42,0000.42,0000.53,16.2,23.3,,00.0,0625.9,30.9
2021-03-24T06:53:00Z,00000200,01000000,0001.25,0001.06,0000.55,0000.16,0000.26,0000.32,0001.05,0000.88,0000.69,16.1,23.3,,00.0,0625.9,30.9
2021-03-24T06:54:00Z,00000200,01000000,0001.72,0001.05,0000.49,0000.51,0000.14,0000.27,0001.29,0000.94,0000.65,16.0,23.2,,00.0,0625.9,30.8
2021-03-24T06:55:00Z,00000200,01000000,0001.15,0001.03,0000.55,0000.77,0000.17,0000.16,0000.84,0000.93,0000.81,15.9,23.2,,00.0,0625.9,30.8
2021-03-24T06:56:00Z,00000200,01000000,0000.80,0001.22,0000.55,0000.39,0000.15,0000.12,0000.79,0000.57,0000.47,15.8,23.1,,00.0,0625.9,30.8
2021-03-24T06:57:00Z,00000200,41000000,,,,,,,0001.36,0001.25,0001.44,15.8,23.1,,00.0,0625.9,30.8
2021-03-24T06:58:00Z,00000200,61000000,,,,,,,-000.12,-000.26,-000.06,15.4,23.3,,00.0,0625.0,30.8
2021-03-24T06:59:00Z,00000200,21000000,,,,,,,-000.56,0000.33,-000.50,15.4,23.4,,00.0,0625.0,30.8
